Zurück zum Katalog

RS-38S

AktivAmateurfunkSSO
NORAD 57189·PAYLOAD·🇷🇺 Russia

Gestartet Jun 27, 2023 von Vostochny Cosmodrome

Loading…

Nächste Überflüge (nächste 24 Stunden)

TLE

AktuellSource: AMSAT

Epoche: Sep 14, 2026, 10:49 UTC

1 57189U 23091Z   26257.45087763  .00014103  00000-0  37159-3 0  9994
2 57189  97.5006 328.8549 0008088 109.5644 250.6475 15.38602116178403

Verfolge RS-38S in Echtzeit mit AllMySat

Download on the App Store